This is the latest recevied weather packets stored in our database for station/object KB1RMA-13. If no packets are shown the sender has not sent any weather packets the latest 10 day(s).
| Time | Temp. | Humidity | Pressure | Rain* | Wind** | Luminosity | Snow |
|---|---|---|---|---|---|---|---|
| 1777645178 | 12.22° C | 55% | 1010.2 hPa | 0 mm | - | 710 W/m² | - |
| 1777644874 | 12.22° C | 57% | 1010.1 hPa | 0 mm | - | 699 W/m² | - |
| 1777644573 | 12.22° C | 61% | 1010 hPa | 0 mm | - | 671 W/m² | - |
| 1777644268 | 12.22° C | 61% | 1010 hPa | 0 mm | - | 671 W/m² | - |
| 1777643965 | 11.67° C | 61% | 1009.9 hPa | 0 mm | - | 647 W/m² | - |
| 1777643662 | 11.67° C | 61% | 1010.1 hPa | 0 mm | - | 647 W/m² | - |
| 1777643359 | 11.67° C | 62% | 1009.9 hPa | 0 mm | - | 641 W/m² | - |
| 1777643056 | 12.22° C | 64% | 1009.8 hPa | 0 mm | - | 625 W/m² | - |
| 1777642753 | 11.67° C | 61% | 1010 hPa | 0 mm | - | 617 W/m² | - |
| 1777642450 | 11.11° C | 65% | 1010.2 hPa | 0 mm | - | 563 W/m² | - |
| 1777642146 | 11.11° C | 65% | 1010 hPa | 0 mm | - | 563 W/m² | - |
| 1777641843 | 11.11° C | 65% | 1009.8 hPa | 0 mm | - | 563 W/m² | - |
| 1777641538 | 11.11° C | 65% | 1010.1 hPa | 0 mm | - | 559 W/m² | - |
| 1777641238 | 11.11° C | 67% | 1010 hPa | 0 mm | - | 547 W/m² | - |
| 1777640935 | 10.56° C | 66% | 1010 hPa | 0 mm | - | 530 W/m² | - |
| 1777640632 | 10.56° C | 67% | 1010.1 hPa | 0 mm | - | 362 W/m² | - |
| 1777640328 | 10.56° C | 69% | 1010.1 hPa | 0 mm | - | 501 W/m² | - |
| 1777640024 | 10.56° C | 68% | 1010 hPa | 0 mm | - | 485 W/m² | - |
| 1777639721 | 10.56° C | 68% | 1010.1 hPa | 0 mm | - | 467 W/m² | - |
| 1777639420 | 10° C | 69% | 1010 hPa | 0 mm | - | 450 W/m² | - |
| 1777639119 | 10° C | 69% | 1009.9 hPa | 0 mm | - | 433 W/m² | - |
| 1777638817 | 10° C | 70% | 1010 hPa | 0 mm | - | 416 W/m² | - |
| 1777638517 | 10° C | 71% | 1009.9 hPa | 0 mm | - | 398 W/m² | - |
| 1777638215 | 10° C | 71% | 1010 hPa | 0 mm | - | 379 W/m² | - |
| 1777637911 | 9.44° C | 73% | 1009.8 hPa | 0 mm | - | 359 W/m² | - |
* Rain latest hour (hover to see other rain measurements)
** Current wind speed in m/s (hover to see current wind gust speed)